Location: Unspecified
(0.0000°N, 0.0000°E)
Time: 21:42:59
(UTC+02:00)

Tiangong 1 - Visible Passes

Search period start: 18 September 2014 00:00
Search period end: 28 September 2014 00:00
Orbit: 362 x 371 km, 42.8° (Epoch: 18 September)

Date Brightness Start Highest point End Pass type
(mag) Time Alt. Az. Time Alt. Az. Time Alt. Az.
18 Sep 4.4 21:49:23 10° WNW 21:49:45 12° WNW 21:49:45 12° WNW visible
19 Sep 0.9 20:43:49 10° NW 20:46:49 68° NE 20:48:29 24° SE visible
20 Sep 3.7 21:15:47 10° W 21:17:41 15° SW 21:19:09 12° SSW visible
21 Sep 4.2 07:08:04 10° SSE 07:08:48 11° SE 07:09:33 10° ESE visible
23 Sep 3.5 06:32:25 13° S 06:34:06 19° SE 06:36:22 10° E visible
24 Sep 1.2 07:02:53 20° WSW 07:04:43 50° NW 07:07:39 10° NNE visible
25 Sep 4.2 06:01:20 14° ENE 06:01:20 14° ENE 06:01:55 10° ENE visible
26 Sep 3.5 06:31:33 14° N 06:31:33 14° N 06:32:07 10° NNE visible
